User: anonymous   Login
Location: ???? ??????? ????
(31.2176°N, 31.6797°E)
Time: 13:56:17
(UTC+00:00)
Language:

Okean O Rocket - Orbit

View from above orbital plane
View from above orbital plane
View from above satellite
View from above satellite

Ground track
Ground track

The orbit data is extracted from the following two-line orbital elements,

1 25861U 99039B   21016.79261259  .00000011  00000-0  89986-5 0  9990
2 25861  98.2091  29.1765 0015401 188.1290 344.7943 14.78615355159142
Epoch (UTC): 16 January 2021 19:01:21
Eccentricity: 0.0015401
inclination: 98.2091°
perigee height: 623 km
apogee height: 644 km
right ascension of ascending node: 29.1765°
argument of perigee: 188.1290°
revolutions per day: 14.78615355
mean anomaly at epoch: 344.7943°
orbit number at epoch: 15914

The dashed part of the orbit path shows where the satellite is in the earth's shadow,  

DLR